CSAV Rio Maipo — A8GH5 — position and weather

sailwx.info

Track history (hours):
 
Tides and Currents Weather Stations Pressure Air Temp Water Temp Dewpoint Dewpoint Depression Visibility Wind Speed Wind Dir Waves Ship Positions

CSAV Rio Maipo

Last reported at 2014-Dec-02 05:17 UTC. Time now 2014-Dec-21 09:54 UTC.
Position N 01°15' E 103°43'.
Warning: this ship's position is 19 days out of date.

Length 210.9 m; beam 32.3 m; draft 12 m.

Type: Ship (hazmat cat A). MMSI: 636091292.

Date/timePositionNaut miles runAvg speedWind from/ knotsBaromVisibWave heightAir tempDewpointWater temp
2014-Dec-02 05:17N 01°15' E 103°43'4 5.4
2014-Dec-02 04:33N 01°17' E 103°46'0 0.0
2014-Dec-02 03:28N 01°17' E 103°46'0 0.0
2014-Dec-02 02:20N 01°17' E 103°46'0 0.0
2014-Dec-02 01:14N 01°17' E 103°46'0 0.0
2014-Dec-02 00:20N 01°17' E 103°46'0 0.0
2014-Dec-01 22:08N 01°17' E 103°46'0 0.0
2014-Dec-01 21:29N 01°17' E 103°46'0 0.0
2014-Dec-01 19:08N 01°17' E 103°46'0 0.0
2014-Dec-01 18:32N 01°17' E 103°46'0 0.0
2014-Dec-01 17:32N 01°17' E 103°46'0 0.0
2014-Dec-01 16:29N 01°17' E 103°46'0 0.0
2014-Dec-01 15:26N 01°17' E 103°46'0 0.0
2014-Dec-01 14:33N 01°17' E 103°46'3 3.2
2014-Dec-01 13:33N 01°14' E 103°47'0 0.0
2014-Dec-01 10:22N 01°14' E 103°47'5 6.2
2014-Dec-01 09:34N 01°13' E 103°52'8 7.9
2014-Dec-01 08:33N 01°15' E 103°60'9 8.9
2014-Dec-01 07:33N 01°17' E 104°08'  
2014-Nov-26 08:09N 22°06' E 113°55'711.0
2014-Nov-26 07:33N 22°07' E 113°48'1212.1
2014-Nov-26 06:34N 22°19' E 113°48'1514.7
2014-Nov-26 05:34N 22°33' E 113°44'4 0.3
2014-Nov-25 16:06N 22°29' E 113°45'814.0
2014-Nov-25 15:33N 22°21' E 113°47'19 8.1
2014-Nov-25 13:14N 22°08' E 114°02'17112.4
2014-Nov-24 23:30N 22°47' E 117°02'1414.5
2014-Nov-24 22:33N 22°53' E 117°16'1414.1
2014-Nov-24 21:33N 22°58' E 117°30'1614.7
2014-Nov-24 20:29N 23°07' E 117°43'1415.0
2014-Nov-24 19:33N 23°17' E 117°54'1515.0
2014-Nov-24 18:34N 23°28' E 118°06'1514.1
2014-Nov-24 17:32N 23°38' E 118°17'1413.9
2014-Nov-24 16:33N 23°47' E 118°28'1313.3
2014-Nov-24 15:33N 23°57' E 118°38'1313.2
2014-Nov-24 14:33N 24°06' E 118°48'1513.4
2014-Nov-24 13:23N 24°18' E 118°60'1113.6
2014-Nov-24 12:33N 24°25' E 119°09'1413.8
2014-Nov-24 11:31N 24°35' E 119°20'2813.3
2014-Nov-24 09:27N 24°55' E 119°41'30014.3
2014-Nov-23 12:27N 29°11' E 122°36'3215.8
2014-Nov-23 10:25N 29°41' E 122°49'8812.9
2014-Nov-23 03:33N 31°06' E 122°20'1514.8
2014-Nov-23 02:34N 31°14' E 122°05'1414.1
2014-Nov-23 01:33N 31°17' E 121°49'9 9.4
2014-Nov-23 00:34N 31°20' E 121°39'0 0.0
2014-Nov-22 23:32N 31°20' E 121°39'0 0.0
2014-Nov-22 22:32N 31°20' E 121°39'0 0.0
2014-Nov-22 21:32N 31°20' E 121°39'0 0.1
2014-Nov-22 20:32N 31°20' E 121°39'0 0.0
2014-Nov-22 19:32N 31°20' E 121°39'0 0.1
2014-Nov-22 18:32N 31°20' E 121°39'0 0.0
2014-Nov-22 17:23N 31°20' E 121°39'0 0.0
2014-Nov-22 16:32N 31°20' E 121°39'0 0.0
2014-Nov-22 15:32N 31°20' E 121°39'0 0.0
2014-Nov-22 14:29N 31°20' E 121°39'0 0.1
2014-Nov-22 13:32N 31°20' E 121°39'0 0.0
2014-Nov-22 12:29N 31°20' E 121°39'0 0.1
2014-Nov-22 11:32N 31°20' E 121°39'0 0.0
2014-Nov-22 10:29N 31°20' E 121°39'0 0.0
2014-Nov-22 09:32N 31°20' E 121°39'0 0.0
2014-Nov-22 08:26N 31°20' E 121°39'0 0.1
2014-Nov-22 07:32N 31°20' E 121°39'0 0.0
2014-Nov-22 06:29N 31°20' E 121°39'0 0.0
2014-Nov-22 05:32N 31°20' E 121°39'  
Track history (hours):
 
Tides and Currents Weather Stations Pressure Air Temp Water Temp Dewpoint Dewpoint Depression Visibility Wind Speed Wind Dir Waves Ship Positions

CSAV Rio Maipo

Last reported at 2014-Dec-02 05:17 UTC. Time now 2014-Dec-21 09:54 UTC.
Position N 01°15' E 103°43'.
Warning: this ship's position is 19 days out of date.

Length 210.9 m; beam 32.3 m; draft 12 m.

Type: Ship (hazmat cat A). MMSI: 636091292.

Date/timePositionNaut miles runAvg speedWind from/ knotsBaromVisibWave heightAir tempDewpointWater temp
2014-Dec-02 05:17N 01°15' E 103°43'4 5.4
2014-Dec-02 04:33N 01°17' E 103°46'0 0.0
2014-Dec-02 03:28N 01°17' E 103°46'0 0.0
2014-Dec-02 02:20N 01°17' E 103°46'0 0.0
2014-Dec-02 01:14N 01°17' E 103°46'0 0.0
2014-Dec-02 00:20N 01°17' E 103°46'0 0.0
2014-Dec-01 22:08N 01°17' E 103°46'0 0.0
2014-Dec-01 21:29N 01°17' E 103°46'0 0.0
2014-Dec-01 19:08N 01°17' E 103°46'0 0.0
2014-Dec-01 18:32N 01°17' E 103°46'0 0.0
2014-Dec-01 17:32N 01°17' E 103°46'0 0.0
2014-Dec-01 16:29N 01°17' E 103°46'0 0.0
2014-Dec-01 15:26N 01°17' E 103°46'0 0.0
2014-Dec-01 14:33N 01°17' E 103°46'3 3.2
2014-Dec-01 13:33N 01°14' E 103°47'0 0.0
2014-Dec-01 10:22N 01°14' E 103°47'5 6.2
2014-Dec-01 09:34N 01°13' E 103°52'8 7.9
2014-Dec-01 08:33N 01°15' E 103°60'9 8.9
2014-Dec-01 07:33N 01°17' E 104°08'  
2014-Nov-26 08:09N 22°06' E 113°55'711.0
2014-Nov-26 07:33N 22°07' E 113°48'1212.1
2014-Nov-26 06:34N 22°19' E 113°48'1514.7
2014-Nov-26 05:34N 22°33' E 113°44'4 0.3
2014-Nov-25 16:06N 22°29' E 113°45'814.0
2014-Nov-25 15:33N 22°21' E 113°47'19 8.1
2014-Nov-25 13:14N 22°08' E 114°02'17112.4
2014-Nov-24 23:30N 22°47' E 117°02'1414.5
2014-Nov-24 22:33N 22°53' E 117°16'1414.1
2014-Nov-24 21:33N 22°58' E 117°30'1614.7
2014-Nov-24 20:29N 23°07' E 117°43'1415.0
2014-Nov-24 19:33N 23°17' E 117°54'1515.0
2014-Nov-24 18:34N 23°28' E 118°06'1514.1
2014-Nov-24 17:32N 23°38' E 118°17'1413.9
2014-Nov-24 16:33N 23°47' E 118°28'1313.3
2014-Nov-24 15:33N 23°57' E 118°38'1313.2
2014-Nov-24 14:33N 24°06' E 118°48'1513.4
2014-Nov-24 13:23N 24°18' E 118°60'1113.6
2014-Nov-24 12:33N 24°25' E 119°09'1413.8
2014-Nov-24 11:31N 24°35' E 119°20'2813.3
2014-Nov-24 09:27N 24°55' E 119°41'30014.3
2014-Nov-23 12:27N 29°11' E 122°36'3215.8
2014-Nov-23 10:25N 29°41' E 122°49'8812.9
2014-Nov-23 03:33N 31°06' E 122°20'1514.8
2014-Nov-23 02:34N 31°14' E 122°05'1414.1
2014-Nov-23 01:33N 31°17' E 121°49'9 9.4
2014-Nov-23 00:34N 31°20' E 121°39'0 0.0
2014-Nov-22 23:32N 31°20' E 121°39'0 0.0
2014-Nov-22 22:32N 31°20' E 121°39'0 0.0
2014-Nov-22 21:32N 31°20' E 121°39'0 0.1
2014-Nov-22 20:32N 31°20' E 121°39'0 0.0
2014-Nov-22 19:32N 31°20' E 121°39'0 0.1
2014-Nov-22 18:32N 31°20' E 121°39'0 0.0
2014-Nov-22 17:23N 31°20' E 121°39'0 0.0
2014-Nov-22 16:32N 31°20' E 121°39'0 0.0
2014-Nov-22 15:32N 31°20' E 121°39'0 0.0
2014-Nov-22 14:29N 31°20' E 121°39'0 0.1
2014-Nov-22 13:32N 31°20' E 121°39'0 0.0
2014-Nov-22 12:29N 31°20' E 121°39'0 0.1
2014-Nov-22 11:32N 31°20' E 121°39'0 0.0
2014-Nov-22 10:29N 31°20' E 121°39'0 0.0
2014-Nov-22 09:32N 31°20' E 121°39'0 0.0
2014-Nov-22 08:26N 31°20' E 121°39'0 0.1
2014-Nov-22 07:32N 31°20' E 121°39'0 0.0
2014-Nov-22 06:29N 31°20' E 121°39'0 0.0
2014-Nov-22 05:32N 31°20' E 121°39'  

Dump ship's entire track history